Weather History for Cook, MN

Change the Weather History Date:

Sunday, October 14, 2012

  Actual Average Record
Temperature  
Mean Temperature 4 °C -  
Max Temperature 12 °C 10 °C 17 °C (2005)
Min Temperature -3 °C 0 °C -4 °C (2002)
Degree Days  
Heating Degree Days 26    
Moisture  
Dew Point 0 °C    
Average Humidity 77    
Maximum Humidity 100    
Minimum Humidity 41    
Precipitation  
Precipitation 0.00 mm - - ()
Sea Level Pressure  
Sea Level Pressure 1010 hPa    
Wind  
Wind Speed 2 km/h (North)    
Max Wind Speed 13 km/h    
Max Gust Speed -    
Visibility 10 kilometers    
Events Fog    
Averages and records for this station are not official NWS values.
T = Trace of Precipitation, MM = Missing Value Source: NWS Daily Summary

Daily Weather History Graph

Daily Weather History Graph

Search for Another Location

Airport:

Trip Planner

Search our weather history database for the weather conditions in past years. The results will help you decide how hot, cold, wet, or windy it might be!

Date:

Astronomy

Oct. 14, 2012 Rise Set
Actual Time 7:29 AM CDT 6:23 PM CDT
Civil Twilight 6:57 AM CDT 6:54 PM CDT
Nautical Twilight 6:22 AM CDT 7:30 PM CDT
Astronomical Twilight 5:46 AM CDT 8:06 PM CDT
Moon 6:27 AM CDT (10/14) 5:42 PM CDT (10/14)
Length of Visible Light 11h 56m
Length of Day
10h 54m
Waning Crescent, 1% of the Moon is Illuminated
Oct 14
Waning Crescent
Oct 15
New
Oct 21
First Quarter
Oct 29
Full
Nov 6
Last Quarter

Hourly Weather History & Observations

Time (CDT) Temp. Windchill Dew Point Humidity Pressure Visibility Wind Dir Wind Speed Gust Speed Precip Events Conditions
12:17 AM -2.0 °C - -2.0 °C 100% 1009.4 hPa 8.0 km Calm Calm - N/A   Overcast
12:37 AM -2.0 °C - -2.0 °C 100% 1009.7 hPa 0.4 km Calm Calm - N/A Fog Light Freezing Fog
12:56 AM -2.0 °C - -2.0 °C 100% 1009.0 hPa 0.4 km Calm Calm - N/A Fog Light Freezing Fog
1:17 AM -2.0 °C - -2.0 °C 100% 1009.4 hPa 0.8 km Calm Calm - N/A Fog Light Freezing Fog
1:37 AM -2.0 °C - -2.0 °C 100% 1009.4 hPa 0.4 km Calm Calm - N/A Fog Light Freezing Fog
1:56 AM -2.0 °C - -3.0 °C 93% 1009.4 hPa 0.4 km Calm Calm - N/A Fog Light Freezing Fog
2:17 AM -2.0 °C - -3.0 °C 93% 1009.0 hPa 0.4 km Calm Calm - N/A Fog Light Freezing Fog
2:36 AM -2.0 °C - -3.0 °C 93% 1009.4 hPa 0.4 km Calm Calm - N/A Fog Light Freezing Fog
2:56 AM -3.0 °C - -3.0 °C 100% 1009.4 hPa 0.4 km Calm Calm - N/A Fog Light Freezing Fog
3:17 AM -3.0 °C - -3.0 °C 100% 1009.4 hPa 0.4 km Calm Calm - N/A Fog Light Freezing Fog
3:36 AM -2.0 °C - -3.0 °C 93% 1009.7 hPa 0.4 km Calm Calm - N/A Fog Light Freezing Fog
3:56 AM -2.0 °C - -2.0 °C 100% 1009.7 hPa 0.4 km Calm Calm - N/A Fog Light Freezing Fog
4:17 AM -2.0 °C - -3.0 °C 93% 1010.0 hPa 0.4 km Calm Calm - N/A Fog Light Freezing Fog
4:36 AM -3.0 °C - -3.0 °C 100% 1009.7 hPa 0.4 km Calm Calm - N/A Fog Light Freezing Fog
4:56 AM -2.0 °C - -3.0 °C 93% 1010.0 hPa 0.4 km Calm Calm - N/A Fog Light Freezing Fog
5:17 AM -2.0 °C - -3.0 °C 93% 1010.0 hPa 0.4 km Calm Calm - N/A Fog Light Freezing Fog
5:36 AM -2.0 °C - -2.0 °C 100% 1010.4 hPa 0.8 km Calm Calm - N/A Fog Light Freezing Fog
5:56 AM -2.0 °C - -2.0 °C 100% 1010.4 hPa 0.8 km Calm Calm - N/A Fog Light Freezing Fog
6:17 AM -2.0 °C - -2.0 °C 100% 1010.4 hPa 0.8 km Calm Calm - N/A Fog Light Freezing Fog
6:36 AM -2.0 °C - -2.0 °C 100% 1010.4 hPa 1.2 km Calm Calm - N/A   Overcast
6:57 AM -2.0 °C - -2.0 °C 100% 1010.4 hPa 4.0 km Calm Calm - N/A   Overcast
7:17 AM -2.0 °C - -2.0 °C 100% 1010.7 hPa 8.0 km Calm Calm - N/A   Overcast
7:36 AM -2.0 °C - -2.0 °C 100% 1010.7 hPa 8.0 km Calm Calm - N/A   Overcast
7:57 AM -2.0 °C - -2.0 °C 100% 1010.7 hPa 4.8 km Calm Calm - N/A   Overcast
8:17 AM -2.0 °C - -2.0 °C 100% 1011.1 hPa 4.8 km Calm Calm - N/A   Overcast
8:36 AM -1.0 °C - -2.0 °C 93% 1010.7 hPa 4.8 km Calm Calm - N/A   Overcast
8:57 AM -1.0 °C - -1.0 °C 100% 1010.7 hPa 8.0 km Calm Calm - N/A   Overcast
9:17 AM -1.0 °C - -1.0 °C 100% 1010.7 hPa 8.0 km Calm Calm - N/A   Mostly Cloudy
9:36 AM 0.0 °C - 0.0 °C 100% 1011.1 hPa 8.0 km Calm Calm - N/A   Clear
9:57 AM 1.0 °C - 1.0 °C 100% 1010.7 hPa 11.3 km Calm Calm - N/A   Clear
10:17 AM 2.0 °C - 2.0 °C 100% 1010.7 hPa 11.3 km Calm Calm - N/A   Clear
10:36 AM 3.0 °C - 3.0 °C 100% 1010.7 hPa 16.1 km Calm Calm - N/A   Clear
10:57 AM 4.0 °C - 4.0 °C 100% 1010.7 hPa 16.1 km Calm Calm - N/A   Clear
11:17 AM 6.0 °C - 6.0 °C 100% 1010.4 hPa 16.1 km Calm Calm - N/A   Clear
11:36 AM 8.0 °C 6.1 °C 4.0 °C 76% 1010.4 hPa 16.1 km NNE 11.1 km/h / 3.1 m/s - N/A   Clear
11:57 AM 9.0 °C - 3.0 °C 66% 1010.4 hPa 16.1 km NNE 7.4 km/h / 2.1 m/s - N/A   Clear
12:17 PM 10.0 °C - 2.0 °C 58% 1010.0 hPa 16.1 km North 7.4 km/h / 2.1 m/s - N/A   Clear
12:36 PM 10.0 °C - 1.0 °C 54% 1010.0 hPa 16.1 km North 9.3 km/h / 2.6 m/s - N/A   Clear
12:57 PM 11.0 °C - 1.0 °C 50% 1009.7 hPa 16.1 km North 9.3 km/h / 2.6 m/s - N/A   Clear
1:16 PM 11.0 °C - 1.0 °C 50% 1010.0 hPa 16.1 km North 5.6 km/h / 1.5 m/s - N/A   Clear
1:36 PM 11.0 °C - 1.0 °C 50% 1009.7 hPa 16.1 km NNE 9.3 km/h / 2.6 m/s - N/A   Clear
1:57 PM 11.0 °C - 1.0 °C 50% 1009.7 hPa 16.1 km Calm Calm - N/A   Clear
2:16 PM 12.0 °C - 0.0 °C 44% 1009.4 hPa 16.1 km North 7.4 km/h / 2.1 m/s - N/A   Clear
2:37 PM 12.0 °C - -1.0 °C 41% 1009.4 hPa 16.1 km NNW 9.3 km/h / 2.6 m/s - N/A   Clear
2:56 PM 12.0 °C - -1.0 °C 41% 1009.4 hPa 11.3 km NNE 13.0 km/h / 3.6 m/s - N/A   Clear
3:17 PM 12.0 °C - -1.0 °C 41% 1009.0 hPa 11.3 km NNE 11.1 km/h / 3.1 m/s - N/A   Clear
3:36 PM 12.0 °C - 0.0 °C 44% 1009.0 hPa 16.1 km North 9.3 km/h / 2.6 m/s - N/A   Scattered Clouds
3:56 PM 12.0 °C - 0.0 °C 44% 1009.0 hPa 16.1 km North 7.4 km/h / 2.1 m/s - N/A   Overcast
4:17 PM 12.0 °C - 1.0 °C 47% 1009.0 hPa 16.1 km North 11.1 km/h / 3.1 m/s - N/A   Overcast
4:36 PM 12.0 °C - 1.0 °C 47% 1009.4 hPa 16.1 km North 7.4 km/h / 2.1 m/s - N/A   Overcast
4:56 PM 12.0 °C - 1.0 °C 47% 1009.4 hPa 16.1 km North 9.3 km/h / 2.6 m/s - N/A   Mostly Cloudy
5:17 PM 11.0 °C - 1.0 °C 50% 1009.4 hPa 16.1 km NNW 7.4 km/h / 2.1 m/s - N/A   Scattered Clouds
5:36 PM 11.0 °C - 1.0 °C 50% 1009.7 hPa 16.1 km Calm Calm - N/A   Scattered Clouds
5:56 PM 11.0 °C - 1.0 °C 50% 1009.7 hPa 16.1 km North 9.3 km/h / 2.6 m/s - N/A   Scattered Clouds
6:17 PM 11.0 °C - 1.0 °C 50% 1009.7 hPa 16.1 km Calm Calm - N/A   Mostly Cloudy
6:36 PM 10.0 °C - 1.0 °C 54% 1010.0 hPa 16.1 km Calm Calm - N/A   Overcast
6:56 PM 10.0 °C - 1.0 °C 54% 1010.0 hPa 16.1 km Calm Calm - N/A   Overcast
7:17 PM 9.0 °C - 1.0 °C 58% 1010.0 hPa 16.1 km Calm Calm - N/A   Overcast
7:36 PM 9.0 °C - 1.0 °C 58% 1010.4 hPa 16.1 km Calm Calm - N/A   Overcast
7:57 PM 9.0 °C - 1.0 °C 58% 1010.4 hPa 16.1 km Calm Calm - N/A   Overcast
8:16 PM 9.0 °C - 1.0 °C 58% 1010.4 hPa 16.1 km Calm Calm - N/A   Mostly Cloudy
8:37 PM 8.0 °C - 2.0 °C 66% 1010.4 hPa 16.1 km Calm Calm - N/A   Mostly Cloudy
8:57 PM 8.0 °C - 2.0 °C 66% 1010.4 hPa 16.1 km Calm Calm - N/A   Mostly Cloudy
9:16 PM 8.0 °C - 2.0 °C 66% 1010.4 hPa 16.1 km Calm Calm - N/A   Mostly Cloudy
9:37 PM 8.0 °C - 2.0 °C 66% 1010.4 hPa 16.1 km Calm Calm - N/A   Overcast
9:56 PM 8.0 °C - 3.0 °C 71% 1010.4 hPa 16.1 km Calm Calm - N/A   Overcast
10:17 PM 7.0 °C - 3.0 °C 76% 1010.4 hPa 16.1 km Calm Calm - N/A   Scattered Clouds
10:37 PM 7.0 °C - 3.0 °C 76% 1010.4 hPa 16.1 km Calm Calm - N/A   Mostly Cloudy
10:56 PM 7.0 °C - 3.0 °C 76% 1010.7 hPa 16.1 km Calm Calm - N/A   Overcast
11:17 PM 7.0 °C - 3.0 °C 76% 1010.7 hPa 16.1 km Calm Calm - N/A   Mostly Cloudy
11:37 PM 6.0 °C - 3.0 °C 81% 1010.7 hPa 16.1 km Calm Calm - N/A   Mostly Cloudy